Location: Brailly-Cornehotte
(50.2178°N, 1.9601°E)
Time: 16:44:31
(UTC+00:00)

Daily predictions for brighter satellites

Satellite Brightness Start Highest point End
(mag) Time Altitude Azimuth Time Altitude Azimuth Time Altitude Azimuth
Cosmos 2233 Rocket 4.0 17:30:32 10° N 17:36:48 66° ENE 17:43:03 10° SSE
NOSS 0 Rocket 4.0 17:32:27 10° NNW 17:38:45 79° ENE 17:45:00 10° SE
ARIANE 6 FM1 Upper Stage 4.2 17:38:40 10° NNW 17:41:41 20° NNE 17:44:41 10° ENE
SMAP 4.3 17:38:17 10° S 17:42:46 48° W 17:47:18 10° NNW
Thor Agena Rocket 4.3 17:39:07 10° S 17:44:08 58° WSW 17:49:15 10° NNW
NOSS 3-4 (A) 3.9 17:38:05 10° NW 17:44:26 56° NE 17:51:56 10° ESE
NOSS 3-4 (C) 3.9 17:38:21 10° NW 17:44:43 55° NE 17:52:13 10° ESE
Cosmos 1725 Rocket 4.2 17:39:18 10° NNW 17:45:34 80° W 17:51:50 10° S
IRS-1C 4.4 17:40:29 10° S 17:45:48 76° WSW 17:51:10 10° NNW
Cosmos 2151 Rocket 3.6 17:44:48 10° N 17:49:20 86° E 17:53:51 10° S
Meteor 1-11 4.2 17:46:34 10° S 17:52:11 78° E 17:57:58 10° NNE
Cosmos 1607 4.0 17:49:18 10° SW 17:55:27 89° SE 18:01:42 10° NE
Radarsat Rocket 4.1 17:49:44 10° SE 17:55:30 59° ENE 18:01:47 10° NNW
Cosmos 1455 Rocket 3.5 17:52:56 10° N 17:56:55 36° ENE 18:00:54 10° SE
UNK 4.4 17:52:44 10° N 17:57:13 58° WNW 18:01:42 10° SSW
Cosmos 44 Rocket 4.4 17:55:16 10° SSE 17:59:14 25° ESE 18:03:11 11° ENE
Cosmos 2228 4.0 17:56:21 10° NNE 17:59:44 23° ENE 18:03:07 10° ESE
YAOGAN 1 2.5 17:55:36 10° SSE 17:59:48 67° ENE 18:04:03 10° N
Cosmos 1975 Rocket 4.3 17:57:00 10° SE 18:00:04 19° E 18:03:08 10° NE
COSMO-SKYMED 1 2.9 17:56:35 10° NNE 18:00:28 38° E 18:04:18 10° SSE
PSLV R/B 3.7 17:56:45 10° SE 18:00:39 43° ENE 18:04:33 10° N
ATLAS 2AS CENTAUR R/B 4.0 17:54:38 10° W 18:00:46 32° NNW 18:06:48 10° NE
Cosmos 1782 4.1 17:59:14 10° NNE 18:01:32 16° ENE 18:03:12 12° E
Cosmos 2297 Rocket 2.5 17:56:38 10° S 18:02:00 46° ESE 18:07:23 10° NE
Lacrosse 5 rocket 1.9 17:59:52 10° W 18:03:10 39° NNW 18:06:24 11° NE
DNEPR-1 R/B 4.3 17:59:54 10° NNW 18:04:24 44° NE 18:09:44 10° ESE
SPOT 1/Viking Rocket 3.9 18:01:44 10° S 18:06:49 69° WSW 18:11:58 10° NNW
Cosmos 2061 Rocket 4.1 18:00:50 10° N 18:07:16 89° W 18:13:34 10° S
Aureole 3 Rocket 2.6 18:03:27 10° N 18:07:27 57° ENE 18:10:38 10° SSE
CZ-2D R/B 3.2 18:05:44 10° SSE 18:09:38 72° ENE 18:13:40 10° N
Meteor 2-1 Rocket 4.4 18:03:51 10° NNW 18:09:41 86° W 18:15:36 10° S
Okean 1 Rocket 3.1 18:07:55 10° NNW 18:12:21 84° W 18:16:42 10° S
SL-16 R/B 4.1 18:07:13 10° N 18:12:43 35° WNW 18:18:14 10° WSW
Cosmos 1356 Rocket 4.4 18:08:57 10° NNW 18:12:45 49° W 18:16:35 10° S
CZ-4C R/B 1.9 18:08:46 10° SW 18:13:05 77° NW 18:18:43 10° NE
Cosmos 1464 Rocket 4.4 18:10:39 10° N 18:16:42 43° ENE 18:22:39 10° SE
Okean 2 Rocket 3.5 18:13:14 10° NNW 18:17:36 65° W 18:21:55 10° S
Cosmos 2344 4.4 18:13:19 10° SSE 18:19:29 25° ESE 18:23:43 15° ENE
Cosmos 2221 Rocket 3.6 18:15:40 10° S 18:20:08 84° E 18:24:41 10° NNE
USA 267 3.4 18:15:08 11° ENE 18:21:29 75° NNW 18:28:01 10° WSW
SJ-6B 3.0 18:21:23 10° SE 18:24:32 35° ENE 18:27:42 10° N
Cosmos 1980 3.9 18:24:19 10° NNW 18:29:59 75° WSW 18:35:36 10° SSE
Cosmos 2263 Rocket 3.3 18:26:27 10° SSE 18:30:38 22° E 18:31:44 20° E
Cosmos 1025 Rocket 3.6 18:26:29 10° SSW 18:30:44 60° WNW 18:35:03 10° N
Sich 1 Rocket 4.3 18:28:06 10° NNW 18:32:35 58° W 18:37:03 10° S
COSMOS 2428 4.4 18:27:54 10° NW 18:33:03 36° WSW 18:38:12 10° S
Cosmos 2237 Rocket 2.4 18:29:35 10° NNW 18:35:16 74° WSW 18:40:56 10° SSE
Meteor 1-31 Rocket 3.8 18:36:36 23° NE 18:36:36 23° NE 18:38:51 10° N
SKYMED 2 4.3 18:32:51 10° N 18:37:07 57° WNW 18:41:22 10° SSW
Meteor 1-27 4.2 18:32:00 10° N 18:37:49 84° ENE 18:43:38 10° SSE
SeaSat 1 4.2 18:37:59 10° S 18:42:24 34° WSW 18:46:51 10° NW
Cosmos 1570 Rocket 3.9 18:38:01 10° SSW 18:43:17 75° ESE 18:48:33 10° NNE
Resurs 01 Rocket 1.5 18:39:27 10° SSE 18:43:50 86° ENE 18:48:16 10° NNW
SPOT 5 3.4 18:45:52 24° ESE 18:48:16 39° ENE 18:52:59 10° N
NOSS 3-3 (C) 4.1 18:44:40 10° SW 18:50:00 67° NW 18:55:59 12° NE
DMSP B5D1-3 4.4 18:47:46 10° NNE 18:52:54 74° ESE 18:58:00 10° S
Tiangong 0.1 18:53:45 10° SSW 18:55:40 15° S 18:55:40 15° S
SL-16 R/B 2.2 18:55:35 10° NNW 19:01:12 59° NE 19:03:58 30° SE
Cosmos 2227 Rocket 2.2 18:55:44 10° S 19:01:14 57° ESE 19:05:16 19° NE
Cosmos 773 Rocket 3.9 18:58:54 10° SSW 19:04:10 86° ESE 19:09:30 10° NNE
Cosmos 1346 Rocket 3.7 19:00:50 10° S 19:02:49 29° SSE 19:02:49 29° SSE
Cosmos 2208 Rocket 3.9 18:59:10 10° SSW 19:04:24 81° ESE 19:09:45 10° NNE
Tsikada Rocket 4.4 19:02:40 10° SSE 19:08:14 38° E 19:13:51 10° NNE
CZ-4 R/B 2.6 19:17:56 27° N 19:17:56 27° N 19:19:51 10° N
Okean O Rocket 3.9 19:20:31 11° NNE 19:20:31 11° NNE 19:20:51 10° NNE
ARIANE 6 FM1 Upper Stage 2.6 19:17:24 10° NW 19:21:05 63° NNE 19:21:05 63° NNE
CZ-4B R/B 3.5 19:26:09 44° NE 19:26:09 44° NE 19:30:48 10° N
Terra 3.2 19:30:49 26° NNE 19:30:49 26° NNE 19:33:11 10° N
Cosmos 1544 Rocket 3.4 19:25:16 10° N 19:29:38 89° E 19:30:03 73° SSE
Cosmos 1816 Rocket 4.4 19:24:07 10° S 19:30:16 88° W 19:36:34 10° N
CZ-4B DEB 4.1 19:29:06 49° SE 19:30:29 68° ENE 19:35:55 10° N
BREEZE-M (TANK) 4.5 19:29:51 10° W 19:32:56 32° SSW 19:36:14 22° SSE
CSL-04 Debris 4.0 19:30:41 33° SSE 19:33:17 84° ENE 19:38:44 10° NNW
Cosmos 2034 Rocket 3.9 19:28:27 10° N 19:34:39 85° W 19:40:51 10° S
Cosmos 1782 3.6 19:33:04 10° NNW 19:36:30 44° W 19:37:19 37° SW
Cosmos 2228 4.3 19:32:57 10° NNW 19:36:51 39° W 19:40:46 10° SSW
TSX-5 4.1 19:32:04 10° NNW 19:37:22 84° ENE 19:37:22 84° ENE
Cosmos 1975 Rocket 3.9 19:33:12 10° SSW 19:37:25 50° WNW 19:41:38 10° N
RESURS DK-1 4.2 19:34:05 10° NNW 19:35:40 20° N 19:35:40 20° N
CSL-04 Rocket 3.6 19:35:11 30° SSE 19:37:55 84° WSW 19:43:15 10° NNW
Cosmos 44 Rocket 3.7 19:35:19 10° SW 19:40:15 64° NW 19:41:49 42° NNE
Lacrosse 5 rocket 2.9 19:37:33 10° WNW 19:39:50 24° NNW 19:39:50 24° NNW
MOS 1 4.2 19:41:21 63° ENE 19:41:30 63° ENE 19:47:07 10° N
Cosmos 1634 Rocket 3.9 19:35:44 10° N 19:42:03 66° ENE 19:43:02 58° ESE
Cosmos 2297 Rocket 3.5 19:40:52 10° WSW 19:46:08 38° NW 19:51:26 10° NNE
Cosmos 1943 3.5 19:43:30 10° NNW 19:48:32 52° NNE 19:48:32 52° NNE
ATLAS 2AS CENTAUR R/B 4.0 19:47:58 10° NW 19:53:40 27° N 19:55:21 24° NNE
BREEZE-M DEB (TANK) 3.8 19:37:48 10° W 19:55:24 67° S 19:56:30 58° SE
ERS-1 Rocket 3.7 20:02:08 43° N 20:02:08 43° N 20:05:32 10° NNW
CZ-4C R/B 3.7 19:58:02 10° WNW 20:02:17 28° NNW 20:04:22 22° NNE
BREEZE-M DEB (TANK) 4.3 19:58:02 10° SW 20:02:52 60° SE 20:04:47 51° ESE
Cosmos 972 Rocket 4.3 19:58:41 10° NNW 20:02:46 61° NNW 20:02:46 61° NNW
USA 267 3.8 20:02:29 42° NE 20:04:08 50° N 20:10:24 10° WNW
Cosmos 2279 Rocket 4.2 19:58:17 10° N 20:03:20 56° NNE 20:03:20 56° NNE
Cosmos 2263 Rocket 2.4 20:08:17 10° SW 20:13:31 70° W 20:13:31 70° W
ADEOS 4.3 20:23:43 50° NW 20:23:43 50° NW 20:27:42 10° NNW
SPOT 5 4.4 20:24:54 29° SW 20:26:15 33° W 20:30:50 10° NNW
Cosmos 2344 3.4 20:25:22 10° SW 20:33:01 78° NW 20:33:48 70° N
SL-16 R/B 3.9 20:40:15 10° NW 20:44:55 27° WSW 20:45:53 26° WSW
Cosmos 2227 Rocket 3.7 20:40:32 10° WSW 20:45:35 32° NW 20:47:09 28° NNW
Terra 4.4 21:09:26 17° NW 21:09:26 17° NW 21:10:40 10° NNW
ATLAS 2AS CENTAUR R/B 4.3 21:39:38 10° NW 21:42:46 27° NNW 21:42:46 27° NNW
